| time (UTC) | temp F | wind direction | speed MPH | gust MPH | rain 1hr in | rain 24hr in | rain mn in | humidity % | barometer mb |
| 20260831011041 | 81 | 325 | 2.0 | 9.0 | 0.00 | 0.00 | 0.00 | 31 | 1022.3 |
| 20260831010541 | 82 | 352 | 2.0 | 11.0 | 0.00 | 0.00 | 0.00 | 31 | 1022.2 |
| 20260831010057 | 82 | 324 | 5.0 | 11.0 | 0.00 | 0.00 | 0.00 | 31 | 1022.3 |
| 20260831005542 | 83 | 355 | 6.0 | 11.0 | 0.00 | 0.00 | 0.00 | 30 | 1022.3 |
| 20260831005042 | 84 | 350 | 2.0 | 8.0 | 0.00 | 0.00 | 0.00 | 30 | 1022.4 |
| 20260831004603 | 84 | 342 | 2.0 | 8.0 | 0.00 | 0.00 | 0.00 | 29 | 1022.4 |
| 20260831004041 | 85 | 325 | 4.0 | 8.0 | 0.00 | 0.00 | 0.00 | 29 | 1022.4 |
| 20260831003541 | 85 | 337 | 4.0 | 8.0 | 0.00 | 0.00 | 0.00 | 28 | 1022.4 |
| 20260831003104 | 86 | 327 | 3.0 | 8.0 | 0.00 | 0.00 | 0.00 | 28 | 1022.4 |
| 20260831002541 | 86 | 325 | 1.0 | 7.0 | 0.00 | 0.00 | 0.00 | 28 | 1022.4 |
| 20260831002042 | 86 | 273 | 3.0 | 7.0 | 0.00 | 0.00 | 0.00 | 28 | 1022.5 |
| 20260831001601 | 86 | 309 | 0.0 | 10.0 | 0.00 | 0.00 | 0.00 | 28 | 1022.6 |
| 20260831001042 | 86 | 315 | 4.0 | 11.0 | 0.00 | 0.00 | 0.00 | 28 | 1022.5 |
| 20260831000541 | 87 | 16 | 5.0 | 11.0 | 0.00 | 0.00 | 0.00 | 27 | 1022.6 |
| 20260831000105 | 88 | 318 | 4.0 | 10.0 | 0.00 | 0.00 | 0.00 | 27 | 1022.5 |
| 20260830235542 | 88 | 28 | 1.0 | 5.0 | 0.00 | 0.00 | 0.00 | 27 | 1022.4 |
| 20260830235044 | 88 | 0 | 1.0 | 5.0 | 0.00 | 0.00 | 0.00 | 27 | 1022.5 |
| 20260830234612 | 89 | 60 | 2.0 | 5.0 | 0.00 | 0.00 | 0.00 | 27 | 1022.5 |
| 20260830234042 | 89 | 111 | 1.0 | 12.0 | 0.00 | 0.00 | 0.00 | 26 | 1022.5 |
| 20260830233541 | 89 | 196 | 2.0 | 12.0 | 0.00 | 0.00 | 0.00 | 27 | 1022.5 |
| 20260830233058 | 89 | 306 | 4.0 | 12.0 | 0.00 | 0.00 | 0.00 | 27 | 1022.5 |
| 20260830232542 | 88 | 289 | 0.0 | 9.0 | 0.00 | 0.00 | 0.00 | 26 | 1022.4 |
| 20260830232042 | 88 | 300 | 2.0 | 10.0 | 0.00 | 0.00 | 0.00 | 27 | 1022.4 |
| 20260830231606 | 88 | 292 | 5.0 | 12.0 | 0.00 | 0.00 | 0.00 | 27 | 1022.4 |
| 20260830231041 | 88 | 290 | 4.0 | 12.0 | 0.00 | 0.00 | 0.00 | 29 | 1022.5 |
| 20260830230542 | 88 | 333 | 8.0 | 12.0 | 0.00 | 0.00 | 0.00 | 28 | 1022.5 |
| 20260830230057 | 88 | 318 | 4.0 | 7.0 | 0.00 | 0.00 | 0.00 | 28 | 1022.5 |
| 20260830225541 | 88 | 98 | 1.0 | 7.0 | 0.00 | 0.00 | 0.00 | 28 | 1022.5 |
| 20260830225043 | 87 | 63 | 3.0 | 7.0 | 0.00 | 0.00 | 0.00 | 29 | 1022.6 |
| 20260830224557 | 86 | 40 | 1.0 | 6.0 | 0.00 | 0.00 | 0.00 | 29 | 1022.7 |
| 20260830224042 | 85 | 265 | 2.0 | 11.0 | 0.00 | 0.00 | 0.00 | 31 | 1022.7 |
| 20260830223542 | 85 | 279 | 5.0 | 11.0 | 0.00 | 0.00 | 0.00 | 31 | 1022.7 |
| 20260830223057 | 84 | 338 | 3.0 | 10.0 | 0.00 | 0.00 | 0.00 | 32 | 1022.8 |
| 20260830222541 | 83 | 281 | 5.0 | 11.0 | 0.00 | 0.00 | 0.00 | 32 | 1022.9 |
| 20260830222043 | 82 | 315 | 5.0 | 11.0 | 0.00 | 0.00 | 0.00 | 34 | 1022.9 |
| 20260830221552 | 82 | 16 | 5.0 | 11.0 | 0.00 | 0.00 | 0.00 | 34 | 1023.0 |
| 20260830221043 | 82 | 311 | 6.0 | 13.0 | 0.00 | 0.00 | 0.00 | 34 | 1023.0 |
| 20260830220541 | 82 | 305 | 6.0 | 13.0 | 0.00 | 0.00 | 0.00 | 34 | 1023.0 |
| 20260830220053 | 82 | 334 | 5.0 | 14.0 | 0.00 | 0.00 | 0.00 | 35 | 1023.1 |
| 20260830215545 | 82 | 302 | 6.0 | 14.0 | 0.00 | 0.00 | 0.00 | 35 | 1023.1 |
| 20260830215042 | 82 | 338 | 5.0 | 12.0 | 0.00 | 0.00 | 0.00 | 35 | 1023.1 |
| 20260830214605 | 82 | 326 | 6.0 | 16.0 | 0.00 | 0.00 | 0.00 | 35 | 1023.1 |
| 20260830214044 | 83 | 277 | 9.0 | 16.0 | 0.00 | 0.00 | 0.00 | 34 | 1023.1 |
| 20260830213540 | 84 | 319 | 7.0 | 12.0 | 0.00 | 0.00 | 0.00 | 34 | 1023.2 |
| 20260830213055 | 84 | 343 | 2.0 | 5.0 | 0.00 | 0.00 | 0.00 | 33 | 1023.3 |
| 20260830212541 | 84 | 0 | 1.0 | 13.0 | 0.00 | 0.00 | 0.00 | 33 | 1023.2 |
| 20260830212042 | 84 | 324 | 3.0 | 13.0 | 0.00 | 0.00 | 0.00 | 33 | 1023.3 |
| 20260830211607 | 84 | 315 | 6.0 | 16.0 | 0.00 | 0.00 | 0.00 | 33 | 1023.4 |
| 20260830211042 | 84 | 308 | 6.0 | 16.0 | 0.00 | 0.00 | 0.00 | 33 | 1023.4 |
| 20260830210542 | 85 | 304 | 5.0 | 12.0 | 0.00 | 0.00 | 0.00 | 32 | 1023.5 |
| 20260830210058 | 86 | 242 | 1.0 | 12.0 | 0.00 | 0.00 | 0.00 | 30 | 1023.5 |
| 20260830205541 | 86 | 229 | 3.0 | 12.0 | 0.00 | 0.00 | 0.00 | 30 | 1023.4 |
| 20260830205042 | 86 | 316 | 5.0 | 12.0 | 0.00 | 0.00 | 0.00 | 30 | 1023.5 |
| 20260830204553 | 87 | 264 | 6.0 | 12.0 | 0.00 | 0.00 | 0.00 | 30 | 1023.5 |
| 20260830204044 | 88 | 298 | 5.0 | 12.0 | 0.00 | 0.00 | 0.00 | 30 | 1023.5 |
| 20260830203542 | 89 | 5 | 3.0 | 11.0 | 0.00 | 0.00 | 0.00 | 29 | 1023.6 |
| 20260830203054 | 91 | 335 | 3.0 | 6.0 | 0.00 | 0.00 | 0.00 | 27 | 1023.7 |
| 20260830202542 | 91 | 0 | 1.0 | 4.0 | 0.00 | 0.00 | 0.00 | 27 | 1024.0 |
| 20260830202042 | 91 | 30 | 1.0 | 9.0 | 0.00 | 0.00 | 0.00 | 27 | 1024.0 |
| 20260830201613 | 91 | 268 | 4.0 | 9.0 | 0.00 | 0.00 | 0.00 | 27 | 1024.1 |
| 20260830201042 | 91 | 290 | 4.0 | 10.0 | 0.00 | 0.00 | 0.00 | 27 | 1024.1 |
| 20260830200540 | 89 | 178 | 3.0 | 10.0 | 0.00 | 0.00 | 0.00 | 29 | 1024.2 |
| 20260830200052 | 88 | 70 | 3.0 | 10.0 | 0.00 | 0.00 | 0.00 | 30 | 1024.3 |
| 20260830195541 | 88 | 309 | 2.0 | 10.0 | 0.00 | 0.00 | 0.00 | 30 | 1024.3 |
| 20260830195041 | 87 | 26 | 5.0 | 10.0 | 0.00 | 0.00 | 0.00 | 31 | 1024.5 |
| 20260830194551 | 87 | 293 | 2.0 | 11.0 | 0.00 | 0.00 | 0.00 | 31 | 1024.6 |
| 20260830194041 | 86 | 313 | 2.0 | 14.0 | 0.00 | 0.00 | 0.00 | 31 | 1024.7 |
| 20260830193541 | 86 | 309 | 5.0 | 14.0 | 0.00 | 0.00 | 0.00 | 31 | 1024.7 |
| 20260830193055 | 86 | 300 | 9.0 | 14.0 | 0.00 | 0.00 | 0.00 | 31 | 1024.7 |
| 20260830192541 | 86 | 329 | 6.0 | 14.0 | 0.00 | 0.00 | 0.00 | 32 | 1024.7 |
| 20260830192041 | 86 | 342 | 4.0 | 12.0 | 0.00 | 0.00 | 0.00 | 32 | 1024.6 |
| 20260830191554 | 86 | 311 | 6.0 | 16.0 | 0.00 | 0.00 | 0.00 | 32 | 1024.7 |
| 20260830191041 | 85 | 282 | 6.0 | 16.0 | 0.00 | 0.00 | 0.00 | 32 | 1024.7 |
| 20260830190541 | 85 | 289 | 8.0 | 16.0 | 0.00 | 0.00 | 0.00 | 32 | 1024.7 |
| 20260830190051 | 84 | 302 | 1.0 | 11.0 | 0.00 | 0.00 | 0.00 | 34 | 1024.6 |
| 20260830185542 | 83 | 352 | 2.0 | 12.0 | 0.00 | 0.00 | 0.00 | 34 | 1024.7 |
| 20260830185041 | 83 | 5 | 5.0 | 16.0 | 0.00 | 0.00 | 0.00 | 34 | 1024.7 |
| 20260830184549 | 83 | 317 | 9.0 | 16.0 | 0.00 | 0.00 | 0.00 | 34 | 1024.9 |
| 20260830184043 | 84 | 323 | 7.0 | 15.0 | 0.00 | 0.00 | 0.00 | 33 | 1025.0 |
| 20260830183543 | 84 | 300 | 3.0 | 9.0 | 0.00 | 0.00 | 0.00 | 33 | 1025.1 |
| 20260830183053 | 84 | 242 | 4.0 | 13.0 | 0.00 | 0.00 | 0.00 | 34 | 1025.1 |
| 20260830182542 | 83 | 284 | 4.0 | 16.0 | 0.00 | 0.00 | 0.00 | 35 | 1025.2 |
| 20260830182042 | 82 | 303 | 6.0 | 16.0 | 0.00 | 0.00 | 0.00 | 36 | 1025.3 |
| 20260830181606 | 82 | 296 | 9.0 | 16.0 | 0.00 | 0.00 | 0.00 | 36 | 1025.3 |
| 20260830181045 | 82 | 319 | 6.0 | 12.0 | 0.00 | 0.00 | 0.00 | 36 | 1025.4 |
| 20260830180542 | 83 | 30 | 5.0 | 11.0 | 0.00 | 0.00 | 0.00 | 35 | 1025.4 |
| 20260830180100 | 84 | 320 | 4.0 | 10.0 | 0.00 | 0.00 | 0.00 | 35 | 1025.5 |
| 20260830175541 | 84 | 278 | 2.0 | 10.0 | 0.00 | 0.00 | 0.00 | 35 | 1025.5 |
| 20260830175041 | 84 | 311 | 4.0 | 10.0 | 0.00 | 0.00 | 0.00 | 34 | 1025.7 |
| 20260830174549 | 83 | 248 | 3.0 | 11.0 | 0.00 | 0.00 | 0.00 | 34 | 1025.7 |
| 20260830174040 | 83 | 269 | 4.0 | 11.0 | 0.00 | 0.00 | 0.00 | 34 | 1025.9 |
| 20260830173540 | 83 | 291 | 5.0 | 10.0 | 0.00 | 0.00 | 0.00 | 34 | 1026.0 |
| 20260830173109 | 82 | 0 | 3.0 | 8.0 | 0.00 | 0.00 | 0.00 | 35 | 1026.0 |
| 20260830172541 | 82 | 209 | 2.0 | 9.0 | 0.00 | 0.00 | 0.00 | 36 | 1026.1 |
| 20260830172042 | 81 | 223 | 2.0 | 9.0 | 0.00 | 0.00 | 0.00 | 37 | 1026.2 |
| 20260830171602 | 80 | 338 | 2.0 | 9.0 | 0.00 | 0.00 | 0.00 | 39 | 1026.4 |
| 20260830171043 | 79 | 34 | 1.0 | 7.0 | 0.00 | 0.00 | 0.00 | 39 | 1026.3 |
| 20260830170542 | 79 | 339 | 3.0 | 7.0 | 0.00 | 0.00 | 0.00 | 39 | 1026.3 |
| 20260830170053 | 79 | 347 | 3.0 | 6.0 | 0.00 | 0.00 | 0.00 | 39 | 1026.4 |
| 20260830165541 | 78 | 301 | 1.0 | 7.0 | 0.00 | 0.00 | 0.00 | 43 | 1026.5 |
| 20260830165043 | 78 | 30 | 1.0 | 7.0 | 0.00 | 0.00 | 0.00 | 42 | 1026.6 |
| 20260830164554 | 78 | 284 | 3.0 | 8.0 | 0.00 | 0.00 | 0.00 | 42 | 1026.7 |
| 20260830164042 | 78 | 218 | 4.0 | 8.0 | 0.00 | 0.00 | 0.00 | 45 | 1026.8 |
| 20260830163542 | 77 | 314 | 3.0 | 10.0 | 0.00 | 0.00 | 0.00 | 46 | 1026.8 |
| 20260830163100 | 77 | 211 | 5.0 | 11.0 | 0.00 | 0.00 | 0.00 | 47 | 1026.9 |
| 20260830162542 | 77 | 285 | 5.0 | 11.0 | 0.00 | 0.00 | 0.00 | 46 | 1026.9 |
| 20260830162042 | 77 | 296 | 5.0 | 10.0 | 0.00 | 0.00 | 0.00 | 47 | 1026.8 |
| 20260830161553 | 76 | 254 | 5.0 | 11.0 | 0.00 | 0.00 | 0.00 | 47 | 1026.8 |
| 20260830161041 | 76 | 242 | 5.0 | 11.0 | 0.00 | 0.00 | 0.00 | 47 | 1026.7 |
| 20260830160541 | 76 | 256 | 4.0 | 9.0 | 0.00 | 0.00 | 0.00 | 50 | 1026.6 |
| 20260830160052 | 76 | 270 | 2.0 | 10.0 | 0.00 | 0.00 | 0.00 | 50 | 1026.6 |
| 20260830155541 | 75 | 274 | 3.0 | 10.0 | 0.00 | 0.00 | 0.00 | 49 | 1026.7 |
| 20260830155041 | 75 | 291 | 3.0 | 8.0 | 0.00 | 0.00 | 0.00 | 51 | 1026.6 |
| 20260830154558 | 75 | 235 | 3.0 | 9.0 | 0.00 | 0.00 | 0.00 | 52 | 1026.5 |
| 20260830154044 | 74 | 300 | 3.0 | 9.0 | 0.00 | 0.00 | 0.00 | 50 | 1026.4 |
| 20260830153541 | 74 | 270 | 4.0 | 9.0 | 0.00 | 0.00 | 0.00 | 51 | 1026.4 |
| 20260830153055 | 74 | 305 | 1.0 | 10.0 | 0.00 | 0.00 | 0.00 | 52 | 1026.3 |
| 20260830152541 | 73 | 284 | 3.0 | 10.0 | 0.00 | 0.00 | 0.00 | 53 | 1026.4 |
| 20260830152041 | 73 | 351 | 1.0 | 8.0 | 0.00 | 0.00 | 0.00 | 54 | 1026.3 |
| 20260830151616 | 72 | 0 | 3.0 | 8.0 | 0.00 | 0.00 | 0.00 | 55 | 1026.3 |
| 20260830151041 | 71 | 327 | 1.0 | 8.0 | 0.00 | 0.00 | 0.00 | 58 | 1026.1 |
| 20260830150546 | 70 | 45 | 2.0 | 8.0 | 0.00 | 0.00 | 0.00 | 58 | 1026.0 |
| 20260830145541 | 69 | 32 | 4.0 | 9.0 | 0.00 | 0.00 | 0.00 | 61 | 1026.0 |
| 20260830145042 | 68 | 355 | 3.0 | 7.0 | 0.00 | 0.00 | 0.00 | 64 | 1026.3 |
| 20260830144555 | 68 | 24 | 2.0 | 7.0 | 0.00 | 0.00 | 0.00 | 66 | 1026.3 |
| 20260830144045 | 67 | 0 | 4.0 | 7.0 | 0.00 | 0.00 | 0.00 | 67 | 1026.4 |
| 20260830143541 | 66 | 43 | 2.0 | 6.0 | 0.00 | 0.00 | 0.00 | 68 | 1026.4 |
| 20260830143107 | 66 | 338 | 4.0 | 6.0 | 0.00 | 0.00 | 0.00 | 68 | 1026.4 |
| 20260830142543 | 66 | 341 | 4.0 | 9.0 | 0.00 | 0.00 | 0.00 | 69 | 1026.4 |
| 20260830142041 | 65 | 15 | 4.0 | 9.0 | 0.00 | 0.00 | 0.00 | 69 | 1026.4 |
| 20260830141559 | 65 | 15 | 5.0 | 9.0 | 0.00 | 0.00 | 0.00 | 70 | 1026.4 |
| 20260830141045 | 65 | 348 | 4.0 | 9.0 | 0.00 | 0.00 | 0.00 | 70 | 1026.4 |
| 20260830140547 | 65 | 347 | 5.0 | 10.0 | 0.00 | 0.00 | 0.00 | 70 | 1026.4 |
| 20260830140058 | 65 | 319 | 4.0 | 10.0 | 0.00 | 0.00 | 0.00 | 71 | 1026.4 |
| 20260830135543 | 65 | 343 | 6.0 | 10.0 | 0.00 | 0.00 | 0.00 | 71 | 1026.2 |
| 20260830135043 | 64 | 34 | 4.0 | 9.0 | 0.00 | 0.00 | 0.00 | 72 | 1026.1 |
| 20260830134552 | 64 | 5 | 6.0 | 9.0 | 0.00 | 0.00 | 0.00 | 72 | 1026.0 |
| 20260830134042 | 64 | 18 | 5.0 | 8.0 | 0.00 | 0.00 | 0.00 | 71 | 1026.1 |
| 20260830133541 | 63 | 355 | 2.0 | 6.0 | 0.00 | 0.00 | 0.00 | 72 | 1026.1 |
| 20260830133052 | 63 | 355 | 3.0 | 6.0 | 0.00 | 0.00 | 0.00 | 73 | 1025.8 |
| 20260830132541 | 62 | 355 | 2.0 | 5.0 | 0.00 | 0.00 | 0.00 | 74 | 1025.8 |
| 20260830132043 | 62 | 13 | 2.0 | 5.0 | 0.00 | 0.00 | 0.00 | 74 | 1025.7 |
| 20260830131607 | 62 | 36 | 3.0 | 7.0 | 0.00 | 0.00 | 0.00 | 75 | 1025.6 |
| 20260830131041 | 61 | 40 | 3.0 | 7.0 | 0.00 | 0.00 | 0.00 | 75 | 1025.6 |
| 20260830130541 | 61 | 24 | 3.0 | 6.0 | 0.00 | 0.00 | 0.00 | 76 | 1025.6 |
| 20260830130057 | 61 | 360 | 3.0 | 6.0 | 0.00 | 0.00 | 0.00 | 76 | 1025.7 |
| 20260830125541 | 61 | 324 | 2.0 | 6.0 | 0.00 | 0.00 | 0.00 | 76 | 1025.5 |
| 20260830125041 | 61 | 324 | 4.0 | 6.0 | 0.00 | 0.00 | 0.00 | 75 | 1025.6 |
| 20260830124559 | 61 | 315 | 3.0 | 5.0 | 0.00 | 0.00 | 0.00 | 75 | 1025.5 |
| 20260830124042 | 61 | 285 | 1.0 | 3.0 | 0.00 | 0.00 | 0.00 | 75 | 1025.5 |
| 20260830123543 | 61 | 269 | 1.0 | 3.0 | 0.00 | 0.00 | 0.00 | 74 | 1025.5 |
| 20260830123055 | 61 | 47 | 1.0 | 4.0 | 0.00 | 0.00 | 0.00 | 74 | 1025.3 |
| 20260830122543 | 61 | 0 | 1.0 | 6.0 | 0.00 | 0.00 | 0.00 | 74 | 1025.2 |
| 20260830122041 | 61 | 47 | 3.0 | 6.0 | 0.00 | 0.00 | 0.00 | 74 | 1025.2 |
| 20260830121555 | 61 | 64 | 3.0 | 8.0 | 0.00 | 0.00 | 0.00 | 74 | 1025.1 |
| 20260830121041 | 61 | 46 | 4.0 | 9.0 | 0.00 | 0.00 | 0.00 | 74 | 1025.1 |
| 20260830120541 | 61 | 32 | 4.0 | 10.0 | 0.00 | 0.00 | 0.00 | 74 | 1025.1 |
| 20260830120056 | 61 | 360 | 5.0 | 10.0 | 0.00 | 0.00 | 0.00 | 74 | 1025.1 |
| 20260830115541 | 62 | 47 | 2.0 | 4.0 | 0.00 | 0.00 | 0.00 | 73 | 1025.1 |
| 20260830115041 | 62 | 47 | 3.0 | 5.0 | 0.00 | 0.00 | 0.00 | 73 | 1025.0 |
| 20260830114558 | 62 | 47 | 3.0 | 6.0 | 0.00 | 0.00 | 0.00 | 73 | 1025.0 |
| 20260830114040 | 62 | 46 | 3.0 | 9.0 | 0.00 | 0.00 | 0.00 | 73 | 1024.9 |
| 20260830113541 | 62 | 61 | 3.0 | 9.0 | 0.00 | 0.00 | 0.00 | 73 | 1025.0 |
| 20260830113058 | 62 | 64 | 4.0 | 11.0 | 0.00 | 0.00 | 0.00 | 73 | 1024.9 |
| 20260830112542 | 62 | 55 | 5.0 | 11.0 | 0.00 | 0.00 | 0.00 | 73 | 1024.8 |
| 20260830112038 | 62 | 29 | 5.0 | 8.0 | 0.00 | 0.00 | 0.00 | 73 | 1024.9 |
| 20260830111555 | 62 | 355 | 4.0 | 8.0 | 0.00 | 0.00 | 0.00 | 73 | 1025.0 |
| 20260830111042 | 62 | 360 | 4.0 | 8.0 | 0.00 | 0.00 | 0.00 | 73 | 1025.0 |
| 20260830110542 | 62 | 331 | 3.0 | 10.0 | 0.00 | 0.00 | 0.00 | 73 | 1025.2 |
| 20260830110051 | 62 | 307 | 5.0 | 10.0 | 0.00 | 0.00 | 0.00 | 72 | 1025.1 |
| 20260830105541 | 62 | 323 | 3.0 | 6.0 | 0.00 | 0.00 | 0.00 | 72 | 1025.1 |
| 20260830105041 | 62 | 38 | 2.0 | 9.0 | 0.00 | 0.00 | 0.00 | 72 | 1025.1 |
| 20260830104548 | 62 | 17 | 3.0 | 9.0 | 0.00 | 0.00 | 0.00 | 74 | 1025.1 |
| 20260830104041 | 62 | 26 | 4.0 | 9.0 | 0.00 | 0.00 | 0.00 | 74 | 1025.0 |
| 20260830103543 | 63 | 311 | 5.0 | 9.0 | 0.00 | 0.00 | 0.00 | 73 | 1025.0 |
| 20260830103057 | 63 | 319 | 5.0 | 11.0 | 0.00 | 0.00 | 0.00 | 71 | 1025.1 |
| 20260830102542 | 63 | 290 | 5.0 | 11.0 | 0.00 | 0.00 | 0.00 | 69 | 1025.1 |
| 20260830102041 | 63 | 309 | 2.0 | 11.0 | 0.00 | 0.00 | 0.00 | 65 | 1025.1 |
| 20260830101555 | 62 | 74 | 2.0 | 7.0 | 0.00 | 0.00 | 0.00 | 64 | 1024.9 |
| 20260830101041 | 62 | 64 | 4.0 | 7.0 | 0.00 | 0.00 | 0.00 | 66 | 1024.7 |
| 20260830100541 | 62 | 66 | 3.0 | 8.0 | 0.00 | 0.00 | 0.00 | 68 | 1024.6 |
| 20260830095542 | 61 | 79 | 5.0 | 9.0 | 0.00 | 0.00 | 0.00 | 71 | 1024.6 |
| 20260830095042 | 61 | 79 | 6.0 | 9.0 | 0.00 | 0.00 | 0.00 | 72 | 1024.7 |
| 20260830094607 | 61 | 96 | 6.0 | 11.0 | 0.00 | 0.00 | 0.00 | 73 | 1024.8 |
| 20260830094042 | 61 | 92 | 7.0 | 11.0 | 0.00 | 0.00 | 0.00 | 74 | 1024.8 |
| 20260830093540 | 60 | 72 | 6.0 | 12.0 | 0.00 | 0.00 | 0.00 | 76 | 1024.7 |
| 20260830093055 | 60 | 95 | 6.0 | 12.0 | 0.00 | 0.00 | 0.00 | 78 | 1024.8 |
| 20260830092541 | 60 | 80 | 5.0 | 12.0 | 0.00 | 0.00 | 0.00 | 79 | 1024.9 |
| 20260830092042 | 60 | 84 | 7.0 | 12.0 | 0.00 | 0.00 | 0.00 | 80 | 1025.0 |
| 20260830091554 | 60 | 90 | 8.0 | 12.0 | 0.00 | 0.00 | 0.00 | 81 | 1025.1 |
| 20260830091042 | 60 | 90 | 7.0 | 12.0 | 0.00 | 0.00 | 0.00 | 81 | 1025.0 |
| 20260830090541 | 60 | 86 | 5.0 | 9.0 | 0.00 | 0.00 | 0.00 | 81 | 1025.3 |
| 20260830090052 | 59 | 104 | 3.0 | 6.0 | 0.00 | 0.00 | 0.00 | 81 | 1025.5 |
| 20260830085541 | 59 | 54 | 3.0 | 6.0 | 0.00 | 0.00 | 0.00 | 81 | 1025.7 |
| 20260830085041 | 60 | 55 | 3.0 | 5.0 | 0.00 | 0.00 | 0.00 | 81 | 1025.8 |
| 20260830084600 | 60 | 50 | 3.0 | 5.0 | 0.00 | 0.00 | 0.00 | 81 | 1025.7 |
| 20260830084042 | 60 | 46 | 3.0 | 6.0 | 0.00 | 0.00 | 0.00 | 81 | 1025.7 |
| 20260830083542 | 60 | 343 | 3.0 | 8.0 | 0.00 | 0.00 | 0.00 | 80 | 1025.7 |
| 20260830083100 | 60 | 331 | 4.0 | 8.0 | 0.00 | 0.00 | 0.00 | 80 | 1025.7 |
| 20260830082541 | 60 | 322 | 5.0 | 8.0 | 0.00 | 0.00 | 0.00 | 79 | 1025.7 |
| 20260830082041 | 60 | 311 | 3.0 | 5.0 | 0.00 | 0.00 | 0.00 | 79 | 1025.7 |
| 20260830081555 | 61 | 311 | 2.0 | 5.0 | 0.00 | 0.00 | 0.00 | 78 | 1025.7 |
| 20260830081041 | 61 | 360 | 3.0 | 5.0 | 0.00 | 0.00 | 0.00 | 78 | 1025.7 |
| 20260830080542 | 61 | 338 | 2.0 | 6.0 | 0.00 | 0.00 | 0.00 | 77 | 1025.7 |
| 20260830080058 | 61 | 320 | 3.0 | 8.0 | 0.00 | 0.00 | 0.00 | 77 | 1025.8 |
| 20260830075542 | 61 | 335 | 3.0 | 8.0 | 0.00 | 0.00 | 0.00 | 77 | 1025.7 |
| 20260830075042 | 61 | 347 | 4.0 | 9.0 | 0.00 | 0.00 | 0.00 | 76 | 1025.6 |
| 20260830074608 | 61 | 16 | 4.0 | 12.0 | 0.00 | 0.00 | 0.00 | 76 | 1025.6 |
| 20260830074045 | 62 | 38 | 6.0 | 12.0 | 0.00 | 0.00 | 0.00 | 75 | 1025.5 |
| 20260830073541 | 62 | 329 | 7.0 | 14.0 | 0.00 | 0.00 | 0.00 | 74 | 1025.5 |
| 20260830073107 | 62 | 5 | 7.0 | 14.0 | 0.00 | 0.00 | 0.00 | 73 | 1025.5 |
| 20260830072541 | 62 | 340 | 8.0 | 15.0 | 0.00 | 0.00 | 0.00 | 73 | 1025.5 |
| 20260830072042 | 62 | 338 | 9.0 | 15.0 | 0.00 | 0.00 | 0.00 | 72 | 1025.4 |
| 20260830071559 | 62 | 339 | 9.0 | 16.0 | 0.00 | 0.00 | 0.00 | 72 | 1025.3 |
| 20260830071042 | 62 | 342 | 9.0 | 16.0 | 0.00 | 0.00 | 0.00 | 71 | 1025.4 |
| 20260830070541 | 63 | 342 | 9.0 | 16.0 | 0.00 | 0.00 | 0.00 | 71 | 1025.5 |
| 20260830070057 | 63 | 325 | 9.0 | 16.0 | 0.00 | 0.00 | 0.00 | 71 | 1025.7 |
| 20260830065541 | 63 | 330 | 10.0 | 16.0 | 0.00 | 0.00 | 0.00 | 70 | 1025.8 |
| 20260830065041 | 63 | 327 | 9.0 | 16.0 | 0.00 | 0.00 | 0.00 | 70 | 1025.7 |
| 20260830064553 | 63 | 345 | 9.0 | 18.0 | 0.00 | 0.00 | 0.00 | 69 | 1025.7 |
| 20260830064043 | 64 | 352 | 9.0 | 18.0 | 0.00 | 0.00 | 0.00 | 68 | 1025.9 |
| 20260830063543 | 64 | 348 | 9.0 | 17.0 | 0.00 | 0.00 | 0.00 | 68 | 1025.8 |
| 20260830063049 | 64 | 360 | 10.0 | 17.0 | 0.00 | 0.00 | 0.00 | 67 | 1025.9 |
| 20260830062543 | 64 | 327 | 9.0 | 16.0 | 0.00 | 0.00 | 0.00 | 66 | 1025.9 |
| 20260830062042 | 64 | 355 | 8.0 | 15.0 | 0.00 | 0.00 | 0.00 | 66 | 1026.0 |
| 20260830061613 | 64 | 302 | 7.0 | 18.0 | 0.00 | 0.00 | 0.00 | 66 | 1026.0 |
| 20260830061042 | 64 | 301 | 11.0 | 18.0 | 0.00 | 0.00 | 0.00 | 66 | 1026.0 |
| 20260830060542 | 64 | 347 | 11.0 | 18.0 | 0.00 | 0.00 | 0.00 | 66 | 1026.1 |
| 20260830060100 | 64 | 349 | 11.0 | 18.0 | 0.00 | 0.00 | 0.00 | 66 | 1026.1 |
| 20260830055542 | 65 | 348 | 10.0 | 17.0 | 0.00 | 0.00 | 0.00 | 66 | 1026.0 |
| 20260830055042 | 65 | 338 | 10.0 | 21.0 | 0.00 | 0.00 | 0.00 | 65 | 1026.1 |
| 20260830054549 | 65 | 22 | 11.0 | 21.0 | 0.00 | 0.00 | 0.00 | 64 | 1026.0 |
| 20260830054042 | 65 | 41 | 10.0 | 23.0 | 0.00 | 0.00 | 0.00 | 63 | 1026.0 |
| 20260830053542 | 65 | 42 | 12.0 | 23.0 | 0.00 | 0.00 | 0.00 | 63 | 1026.2 |
| 20260830053051 | 65 | 344 | 11.0 | 22.0 | 0.00 | 0.00 | 0.00 | 63 | 1026.3 |
| 20260830052542 | 65 | 14 | 15.0 | 27.0 | 0.00 | 0.00 | 0.00 | 64 | 1026.2 |
| 20260830052042 | 65 | 5 | 13.0 | 27.0 | 0.00 | 0.00 | 0.00 | 65 | 1026.2 |
| 20260830051552 | 65 | 26 | 16.0 | 27.0 | 0.00 | 0.00 | 0.00 | 64 | 1026.2 |
| 20260830051042 | 65 | 24 | 13.0 | 23.0 | 0.00 | 0.00 | 0.00 | 65 | 1026.5 |
| 20260830050542 | 65 | 5 | 15.0 | 23.0 | 0.00 | 0.00 | 0.00 | 66 | 1026.6 |
| 20260830050054 | 65 | 27 | 15.0 | 22.0 | 0.00 | 0.00 | 0.00 | 66 | 1026.6 |
| 20260830045541 | 65 | 17 | 13.0 | 22.0 | 0.00 | 0.00 | 0.00 | 68 | 1026.7 |
| 20260830045041 | 65 | 35 | 12.0 | 21.0 | 0.00 | 0.00 | 0.00 | 68 | 1026.7 |
| 20260830044601 | 65 | 36 | 11.0 | 21.0 | 0.00 | 0.00 | 0.00 | 68 | 1026.7 |
| 20260830044041 | 65 | 16 | 11.0 | 19.0 | 0.00 | 0.00 | 0.00 | 68 | 1026.7 |
| 20260830043553 | 65 | 13 | 10.0 | 18.0 | 0.00 | 0.00 | 0.00 | 67 | 1026.6 |
| 20260830043130 | 65 | 360 | 12.0 | 19.0 | 0.00 | 0.00 | 0.00 | 67 | 1026.4 |
| 20260830042541 | 66 | 348 | 11.0 | 21.0 | 0.00 | 0.00 | 0.00 | 66 | 1026.5 |
| 20260830042041 | 66 | 40 | 12.0 | 21.0 | 0.00 | 0.00 | 0.00 | 65 | 1026.5 |
| 20260830041556 | 66 | 5 | 13.0 | 19.0 | 0.00 | 0.00 | 0.00 | 65 | 1026.5 |
| 20260830041041 | 66 | 22 | 11.0 | 19.0 | 0.00 | 0.00 | 0.00 | 65 | 1026.3 |
| 20260830040542 | 67 | 30 | 11.0 | 19.0 | 0.00 | 0.00 | 0.00 | 65 | 1026.4 |
| 20260830035542 | 66 | 340 | 11.0 | 16.0 | 0.00 | 0.00 | 0.00 | 64 | 1026.4 |
| 20260830035046 | 66 | 38 | 11.0 | 16.0 | 0.00 | 0.00 | 0.00 | 65 | 1026.3 |
| 20260830034553 | 66 | 33 | 6.0 | 12.0 | 0.00 | 0.00 | 0.00 | 67 | 1026.5 |
| 20260830034042 | 66 | 22 | 4.0 | 9.0 | 0.00 | 0.00 | 0.00 | 67 | 1026.7 |
| 20260830033541 | 67 | 328 | 4.0 | 10.0 | 0.00 | 0.00 | 0.00 | 66 | 1026.7 |
| 20260830033053 | 67 | 350 | 5.0 | 13.0 | 0.00 | 0.00 | 0.00 | 65 | 1026.3 |
| 20260830032541 | 67 | 347 | 7.0 | 17.0 | 0.00 | 0.00 | 0.00 | 63 | 1026.0 |
| 20260830032041 | 68 | 351 | 9.0 | 17.0 | 0.00 | 0.00 | 0.00 | 64 | 1026.0 |
| 20260830031548 | 69 | 309 | 9.0 | 17.0 | 0.00 | 0.00 | 0.00 | 62 | 1026.0 |
| 20260830031042 | 70 | 290 | 9.0 | 21.0 | 0.00 | 0.00 | 0.00 | 60 | 1025.9 |
| 20260830030542 | 71 | 286 | 12.0 | 21.0 | 0.00 | 0.00 | 0.00 | 56 | 1025.5 |
| 20260830030057 | 73 | 290 | 12.0 | 21.0 | 0.00 | 0.00 | 0.00 | 52 | 1025.2 |
| 20260830025542 | 74 | 301 | 13.0 | 26.0 | 0.00 | 0.00 | 0.00 | 48 | 1025.3 |
| 20260830025042 | 75 | 302 | 13.0 | 26.0 | 0.00 | 0.00 | 0.00 | 44 | 1025.2 |
| 20260830024605 | 76 | 298 | 7.0 | 15.0 | 0.00 | 0.00 | 0.00 | 40 | 1025.0 |
| 20260830024041 | 76 | 194 | 4.0 | 10.0 | 0.00 | 0.00 | 0.00 | 38 | 1024.4 |
| 20260830023541 | 76 | 319 | 4.0 | 10.0 | 0.00 | 0.00 | 0.00 | 38 | 1023.8 |
| 20260830023052 | 76 | 333 | 5.0 | 10.0 | 0.00 | 0.00 | 0.00 | 38 | 1023.5 |
| 20260830022544 | 77 | 323 | 5.0 | 8.0 | 0.00 | 0.00 | 0.00 | 37 | 1023.6 |
| 20260830022040 | 77 | 323 | 4.0 | 8.0 | 0.00 | 0.00 | 0.00 | 37 | 1023.5 |
| 20260830021550 | 77 | 324 | 3.0 | 8.0 | 0.00 | 0.00 | 0.00 | 37 | 1023.4 |
| 20260830021044 | 77 | 355 | 4.0 | 8.0 | 0.00 | 0.00 | 0.00 | 37 | 1023.2 |
| 20260830020542 | 77 | 27 | 4.0 | 6.0 | 0.00 | 0.00 | 0.00 | 37 | 1023.2 |
| 20260830015542 | 77 | 35 | 2.0 | 5.0 | 0.00 | 0.00 | 0.00 | 37 | 1023.2 |
| 20260830015042 | 78 | 36 | 3.0 | 6.0 | 0.00 | 0.00 | 0.00 | 36 | 1023.2 |
| 20260830014553 | 78 | 34 | 4.0 | 6.0 | 0.00 | 0.00 | 0.00 | 36 | 1023.1 |
| 20260830014042 | 78 | 45 | 3.0 | 5.0 | 0.00 | 0.00 | 0.00 | 36 | 1023.1 |
| 20260830013541 | 78 | 45 | 3.0 | 5.0 | 0.00 | 0.00 | 0.00 | 36 | 1023.1 |
| 20260830013054 | 78 | 32 | 3.0 | 5.0 | 0.00 | 0.00 | 0.00 | 36 | 1023.2 |
| 20260830012542 | 78 | 28 | 2.0 | 5.0 | 0.00 | 0.00 | 0.00 | 36 | 1023.3 |
| 20260830012041 | 79 | 10 | 2.0 | 5.0 | 0.00 | 0.00 | 0.00 | 36 | 1023.3 |
| 20260830011600 | 79 | 18 | 2.0 | 8.0 | 0.00 | 0.00 | 0.00 | 35 | 1023.3 |